TimeMST,TemperatureF,Dew PointF,Humidity,Sea Level PressureIn,VisibilityMPH,Wind Direction,Wind SpeedMPH,Gust SpeedMPH,PrecipitationIn,Events,Conditions,WindDirDegrees,DateUTC
12:53 AM,21.9,19.0,89,29.87,10.0,SE,8.1,-,N/A,,Mostly Cloudy,130,2012-12-08 07:53:00
1:53 AM,23.0,19.0,85,29.84,10.0,SE,8.1,-,N/A,,Partly Cloudy,130,2012-12-08 08:53:00
2:53 AM,25.0,19.0,78,29.81,10.0,SE,8.1,-,N/A,,Clear,130,2012-12-08 09:53:00
3:53 AM,32.0,21.0,64,29.76,10.0,South,6.9,-,N/A,,Partly Cloudy,190,2012-12-08 10:53:00
4:53 AM,35.1,21.9,59,29.73,10.0,SSW,17.3,23.0,N/A,,Partly Cloudy,210,2012-12-08 11:53:00
5:53 AM,35.1,23.0,61,29.72,10.0,SSW,20.7,27.6,N/A,,Overcast,200,2012-12-08 12:53:00
6:53 AM,32.0,23.0,69,29.72,10.0,South,12.7,-,N/A,,Overcast,190,2012-12-08 13:53:00
7:53 AM,33.1,21.9,64,29.73,10.0,Variable,3.5,16.1,N/A,,Overcast,0,2012-12-08 14:53:00
8:53 AM,39.0,25.0,57,29.69,10.0,West,20.7,26.5,N/A,,Mostly Cloudy,260,2012-12-08 15:53:00
9:53 AM,39.9,26.1,58,29.71,10.0,West,23.0,28.8,N/A,,Overcast,270,2012-12-08 16:53:00
10:53 AM,41.0,21.9,47,29.70,10.0,West,17.3,27.6,N/A,,Mostly Cloudy,260,2012-12-08 17:53:00
11:53 AM,41.0,19.9,43,29.68,10.0,WSW,23.0,27.6,N/A,,Clear,250,2012-12-08 18:53:00
12:53 PM,43.0,14.0,31,29.64,10.0,West,17.3,28.8,N/A,,Clear,260,2012-12-08 19:53:00
1:53 PM,42.1,19.0,40,29.65,10.0,NNW,12.7,23.0,N/A,,Clear,330,2012-12-08 20:53:00
2:00 PM,39.2,24.8,56,29.60,10.0,North,13.8,19.6,N/A,,Partly Cloudy,10,2012-12-08 21:00:00
2:53 PM,34.0,25.0,70,29.69,10.0,North,18.4,25.3,N/A,,Partly Cloudy,360,2012-12-08 21:53:00
3:53 PM,30.9,23.0,72,29.78,10.0,NNW,18.4,27.6,N/A,,Mostly Cloudy,340,2012-12-08 22:53:00
4:53 PM,28.0,19.0,69,29.81,10.0,NW,13.8,-,0.00,,Overcast,320,2012-12-08 23:53:00
6:53 PM,24.1,17.1,75,29.91,10.0,NNW,13.8,-,N/A,,Clear,330,2012-12-09 01:53:00
7:53 PM,21.0,12.0,68,29.96,10.0,NW,25.3,32.2,0.00,,Scattered Clouds,320,2012-12-09 02:53:00
8:53 PM,19.0,10.9,71,30.00,10.0,WNW,21.9,27.6,N/A,,Clear,300,2012-12-09 03:53:00
9:53 PM,18.0,8.1,65,30.03,10.0,WNW,17.3,27.6,N/A,,Clear,290,2012-12-09 04:53:00
10:53 PM,18.0,8.1,65,30.03,10.0,WNW,13.8,-,N/A,,Clear,300,2012-12-09 05:53:00
11:53 PM,16.0,7.0,68,30.02,10.0,NW,18.4,32.2,N/A,,Clear,310,2012-12-09 06:53:00